ONEWEB-0021, 45134

Orbit data source: Space-Track

ONEWEB-0021, 45134 is a payload satellite owned by One Web (UK) in LEO that was launched on Thu, 06 Feb 2020 UTC via a SOYUZ-2-1B launch vehicle from the Tyuratam Missile And Space Complex (TTMTR). Payload-class satellites include a variety of spacecraft equipped with specific instruments for various scientific and technological missions. These include communications satellites like Starlink; space stations such as the ISS; scientific satellites like the Hubble; Earth observation satellites from companies like Planet Labs, Umbra, and HawkEye 360; GPS; miniature CubeSats for education and research; and military/defense satellites.

Loading next visibility...
Identifier
45134, 2020-008D
Orbit
LEO
Country
Flag of UKUK
Related business
Manufacturer
One Web
Mission
Operational Commercial Communications
Bus & Motor
ARROW, Unknown motor
Mass
148 kg wet, ~140 kg dry
Launch date (UTC)
2020-02-06 (6 years ago)
Launch vehicle
SOYUZ-2-1B
Launch site
Tyuratam Missile And Space Complex (TTMTR)
Object type
Payload
Rocket body
Debris
Shape & HBR
Trap Box + 2 Pan, 6.7 m
Radar Cross Section
3.464 m², Large (>1 m²)

Expand to show TLE details & history
Last TLE update: 1 day ago

TLE from 1 day ago
0 ONEWEB-0021
1 45134U 20008D   25301.46886368  .00000589  00000-0  16501-2 0  9994
2 45134  87.8768  82.4843 0001556  99.0507 261.0796 13.10373069278303
Epoch: 2025-10-28T11:15Z
TLE epoch observation values (Epoch: 2025-10-28T11:15:09.821Z)
Latitude
-0.00009°
Longitude
-123.36254°
Altitude
1,224.787 km
Speed
7.242 km/s
True Right ascension
05h 29m 56s
True Declination
0° 00' 00"
Sunlit
Object was in full shadow at epoch
Visualization orbit readout
Latitude
Unknown
Longitude
Unknown
Altitude
Unknown
Speed
Unknown
Apparent Right ascension
Unknown
Apparent Declination
Unknown
Sunlit
N/A
Visualization observer readout
Local Sidereal Time
07:26:21
Azimuth
Unknown
Elevation
Unknown
Doppler factor
Unknown
Orbital elements
Apogee altitude
1,220.018 km
Perigee altitude
1,217.654 km
Semi-major axis
7,596.973 km
Eccentricity
0.00016
Inclination
87.8768°
RAAN
82.4843°
Arg. of periapsis
99.0507°
True anomaly
261.06199°
Mean anomaly
261.0796°
Eccentric anomaly
261.07079°
Mean motion
3.2778 °/min
Orbital period
109.83 mins
BSTAR
0.0016501
Loading maneuver chart data...
Computing Atmospheric mass density...
Loading historical data...
Loading historical data...
Loading historical data...
Loading historical data...
Loading historical data...
Loading historical data...
Loading historical data...

Documentation

Showing up to 5 results
|